User: anonymous   Login
Location: Caltech
(34.1382°N, 118.1253°W)
Time: 16:55:11
(UTC-07:00)
Language:

Cosmos 1943 Rocket - Orbit

View from above orbital plane
View from above orbital plane
View from above satellite
View from above satellite

Ground track
Ground track

The orbit data is extracted from the following two-line orbital elements,

1 19120U 88039B   17173.87168999 -.00000100 +00000-0 -24778-4 0  9992
2 19120 071.0151 312.9094 0022087 185.1540 174.9361 14.19170287506924
Epoch (UTC): 22 June 2017 20:55:14
Eccentricity: 0.0022087
inclination: 71.0151°
perigee height: 812 km
apogee height: 844 km
right ascension of ascending node: 312.9094°
argument of perigee: 185.1540°
revolutions per day: 14.19170287
mean anomaly at epoch: 174.9361°
orbit number at epoch: 50692

The dashed part of the orbit path shows where the satellite is in the earth's shadow,  

DLR